{"data":{"norad_id":54042,"intl_designator":"2022-133A","name":"YAOGAN-36 02A","alt_names":[],"object_type":"PAYLOAD","status":"ACTIVE","operator":null,"country":"PRC","launch_date":"2022-10-14","launch_site_code":"XICLF","launch_vehicle":null,"mission":null,"orbit_class":"UNKNOWN","rcs_meters":null,"size_class":null,"mass_kg":null,"dimensions":null,"purposes":[],"wikipedia_slug":null,"has_3d_model":false,"image_url":null,"decayed_at":null,"tle_current":{"epoch":"2026-05-25T01:00:52.115040Z","epoch_age_seconds":65430,"freshness":"FRESH","line1":"1 54042U 22133A   26145.04226985  .00009872  00000+0  40241-3 0  9999","line2":"2 54042  35.0059 265.3293 0028393 347.3345  12.6654 15.23319147201220","mean_motion":15.23319147,"eccentricity":0.0028393,"inclination_deg":35.0059,"raan_deg":265.3293,"arg_perigee_deg":347.3345,"mean_anomaly_deg":12.6654,"bstar":0.00040241,"rev_number":20122,"period_min":94.530420814044,"perigee_km":476.32007704492,"apogee_km":515.3546278026,"semimajor_km":6873.9743524238,"source":"CELESTRAK","updated_at":"2026-05-25T13:37:58.542649Z"}}}